Home   Weather   Saskatoon   Past weeks
Flag for Canada

Past Weather in Saskatoon, Saskatchewan, Canada — Yesterday and Last 2 Weeks

Now
48 °F

Passing clouds.


Feels Like: 46 °F
Forecast: 72 / 38 °F
Wind: 6 mph from Southeast

Location: Saskatoon Weather Station

Current Time: May 26, 2019 at 11:28:52 pm

Latest Report: May 26, 2019 at 11:00 pm


Visibility: 15 mi

Pressure: 30.20 "Hg

Humidity: 46%

Dew Point: 28 °F

Location of SaskatoonLocation

Past Weather in Saskatoon — Graph

°F

Saskatoon Temperature Yesterday

Maximum temperature yesterday: 54 °F (at 12:00 am)
Minimum temperature yesterday: 43 °F (at 11:00 pm)
Average temperature yesterday: 48 °F

High & Low Weather Summary for the Past Weeks

 TemperatureHumidityPressure
High75 °F (May 22, 4:00 pm)100% (May 26, 5:00 am)30.31 "Hg (May 26, 5:00 am)
Low30 °F (May 16, 5:00 am)15% (May 13, 2:00 pm)29.62 "Hg (May 12, 8:00 pm)
Average53 °F49%30.03 "Hg
* Reported May 11 10:00 pm — May 26 10:00 pm, Saskatoon. Weather by CustomWeather, © 2019

Note: Actual official high and low records may vary slightly from our data, if they occured in-between our weather recording intervals... More about our weather records

Advertising

Saskatoon Weather History for the Previous 24 Hours

Scroll right to see more
 ConditionsComfort  
Time TempWeatherWind HumidityBarometerVisibility
10:00 pm
Sun, May 26
52 °FPassing clouds.3 mph41%30.20 "Hg15 mi
9:00 pm55 °FPassing clouds.6 mph38%30.20 "Hg15 mi
8:00 pm61 °FPassing clouds.6 mph31%30.19 "Hg15 mi
7:00 pm61 °FPassing clouds.3 mph34%30.19 "Hg15 mi
6:00 pm64 °FScattered clouds.9 mph30%30.19 "Hg15 mi
5:00 pm63 °FScattered clouds.12 mph32%30.20 "Hg15 mi
4:00 pm63 °FBroken clouds.8 mph34%30.22 "Hg15 mi
3:00 pm61 °FPartly sunny.2 mph39%30.22 "Hg15 mi
2:00 pm61 °FScattered clouds.6 mph39%30.23 "Hg15 mi
1:00 pm57 °FScattered clouds.No wind44%30.24 "Hg15 mi
12:00 pm55 °FPassing clouds.No wind51%30.24 "Hg15 mi
11:00 am54 °FScattered clouds.2 mph58%30.25 "Hg15 mi
10:00 am52 °FBroken clouds.6 mph67%30.25 "Hg12 mi
9:00 am48 °FPartly sunny.10 mph82%30.25 "Hg10 mi
8:00 am45 °FBroken clouds.6 mph87%30.24 "Hg10 mi
7:49 am45 °FBroken clouds.8 mph87%30.24 "Hg10 mi
7:18 am45 °FPartly sunny.7 mph81%30.24 "Hg10 mi
7:00 am43 °FScattered clouds.7 mph87%30.24 "Hg10 mi
6:00 am37 °FBroken clouds.5 mph100%30.24 "Hg7 mi
5:00 am36 °FBroken clouds.5 mph100%30.23 "Hg7 mi
4:12 am36 °FPartly cloudy.No wind93%30.22 "Hg15 mi
3:00 am39 °FPassing clouds.3 mph93%30.21 "Hg15 mi
2:00 am41 °FPassing clouds.No wind87%30.21 "Hg15 mi
1:00 am39 °FPassing clouds.No wind87%30.20 "Hg15 mi
12:00 am39 °FPassing clouds.No wind87%30.19 "Hg15 mi
11:00 pm
Sat, May 25
43 °FPassing clouds.5 mph81%30.17 "Hg15 mi
Weather by CustomWeather, © 2019

See weather overview